This demonstration page uses our WeatherBlox Daily Observations layout. Learn more.

Left ArrowRight Arrow

40.92945, -100.16068

Hourly Observations for November 29, 2015

Temp ( °F °C ) Dew Point ( °F °C ) Humidity (%) Winds ( mph kmh ) Pressure ( in mb ) Visibility ( mi km ) Precip ( " mm )
12:15 am 00:15 Cloudy 29 -1.6 17 -8.3 61 61 N N/A 30.45 1031 10 16 N/A
12:35 am 00:35 Cloudy 29 -1.6 17 -8.4 60 60 N N/A 30.42 1030 10 16 N/A
12:55 am 00:55 Cloudy 29 -1.7 17 -8.3 61 61 N N/A 30.42 1030 10 16 N/A
1:15 am 01:15 Cloudy 29 -1.7 18 -8 63 63 N N/A 30.42 1030 10 16 N/A
1:35 am 01:35 Cloudy 29 -1.8 17 -8.1 62 62 E 5 7 30.39 1029 10 16 N/A
1:55 am 01:55 Cloudy 29 -1.8 17 -8.2 62 62 E 3 6 30.39 1029 10 16 N/A
2:15 am 02:15 Cloudy 28 -2 16 -9.1 59 59 E 5 7 30.39 1029 10 16 N/A
2:35 am 02:35 Cloudy 29 -1.8 16 -9 58 58 N N/A 30.42 1030 10 16 N/A
2:55 am 02:55 Cloudy 29 -1.8 17 -8.4 61 61 N N/A 30.39 1029 10 16 N/A
3:15 am 03:15 Cloudy 28 -2 16 -9 59 59 ENE 3 6 30.39 1029 10 16 N/A
3:35 am 03:35 Cloudy 28 -2 16 -8.7 61 61 E 3 6 30.39 1029 10 16 N/A
3:55 am 03:55 Cloudy 28 -2.1 17 -8.6 61 61 E 3 6 30.39 1029 10 16 N/A
4:15 am 04:15 Cloudy 28 -2 17 -8.2 63 63 E 3 6 30.36 1028 10 16 N/A
4:35 am 04:35 Cloudy 28 -2 17 -8.4 62 62 ESE 3 6 30.36 1028 10 16 N/A
4:55 am 04:55 Cloudy 28 -2 17 -8.5 61 61 ESE 3 6 30.39 1029 10 16 N/A
5:15 am 05:15 Cloudy 28 -2.1 17 -8.4 62 62 E 3 6 30.36 1028 10 16 N/A
5:35 am 05:35 Cloudy 28 -2.1 17 -8.3 63 63 ESE 3 6 30.36 1028 10 16 N/A
5:55 am 05:55 Cloudy 28 -2.3 17 -8.5 63 63 E 3 6 30.36 1028 10 16 N/A
6:15 am 06:15 Cloudy 28 -2.5 17 -8.5 64 64 E 5 7 30.36 1028 10 16 N/A
6:35 am 06:35 Cloudy 28 -2.3 18 -8 65 65 E 5 7 30.36 1028 10 16 N/A
6:55 am 06:55 Cloudy 28 -2.3 18 -7.6 67 67 E 3 6 30.36 1028 10 16 N/A
7:15 am 07:15 Cloudy 28 -2.3 18 -7.7 67 67 N N/A 30.36 1028 10 16 N/A
7:35 am 07:35 Cloudy 28 -2.3 17 -8.1 65 65 N N/A 30.36 1028 10 16 N/A
7:55 am 07:55 Cloudy 28 -2.2 17 -8.3 63 63 N N/A 30.36 1028 10 16 N/A
8:15 am 08:15 Cloudy 28 -2.2 17 -8.5 62 62 S 3 6 30.36 1028 10 16 N/A
8:35 am 08:35 Cloudy 28 -2.2 18 -7.8 66 66 N N/A 30.36 1028 10 16 N/A
8:55 am 08:55 Cloudy 28 -2.1 16 -8.9 60 60 SSE 3 6 30.39 1029 10 16 N/A
9:15 am 09:15 Cloudy 29 -1.9 16 -9.1 58 58 SE 3 6 30.36 1028 10 16 N/A
9:35 am 09:35 Cloudy 28 -2 15 -9.4 57 57 SE 3 6 30.36 1028 10 16 N/A
9:55 am 09:55 Cloudy 28 -2 19 -7.4 67 67 N N/A 30.36 1028 7 11 N/A
10:15 am 10:15 Cloudy with Light Snow 28 -2.3 21 -6 76 76 N N/A 30.36 1028 3 4 N/A
10:35 am 10:35 Cloudy with Light Snow 27 -2.6 23 -5.1 83 83 N N/A 30.36 1028 1 2 N/A
10:55 am 10:55 Cloudy with Light Snow 28 -2.5 24 -4.6 86 86 N 3 6 30.36 1028 2 2 N/A
11:15 am 11:15 Cloudy 28 -2.4 23 -4.8 84 84 N N/A 30.36 1028 7 11 N/A
11:35 am 11:35 Cloudy 28 -2.1 22 -5.3 79 79 N N/A 30.36 1028 10 16 N/A
11:55 am 11:55 Cloudy 28 -2 22 -5.4 78 78 N N/A 30.33 1027 10 16 N/A
12:15 pm 12:15 Cloudy 29 -1.8 22 -5.5 76 76 N N/A 30.33 1027 10 16 N/A
12:35 pm 12:35 Cloudy 29 -1.5 21 -6 72 72 N N/A 30.33 1027 7 11 N/A
12:55 pm 12:55 Cloudy 30 -1.2 22 -5.6 72 72 NNE 5 7 30.33 1027 10 16 N/A
1:15 pm 13:15 Cloudy 30 -1 22 -5.6 71 71 N N/A 30.30 1026 10 16 N/A
1:35 pm 13:35 Cloudy 31 -0.5 23 -5 72 72 NE 3 6 30.27 1025 10 16 N/A
1:55 pm 13:55 Cloudy 31 -0.6 22 -5.5 70 70 N N/A 30.30 1026 10 16 N/A
2:15 pm 14:15 Cloudy 31 -0.5 22 -5.5 69 69 N N/A 30.27 1025 10 16 N/A
2:35 pm 14:35 Cloudy 31 -0.5 22 -5.5 69 69 N N/A 30.24 1024 10 16 N/A
2:55 pm 14:55 Cloudy 32 -0.1 22 -5.3 68 68 N N/A 30.24 1024 10 16 N/A
3:15 pm 15:15 Cloudy 32 -0.1 22 -5.4 68 68 N N/A 30.24 1024 10 16 N/A
3:35 pm 15:35 Cloudy 32 undefined 23 -5 69 69 N N/A 30.24 1024 10 16 N/A
3:55 pm 15:55 Cloudy 32 -0.1 23 -5 70 70 N N/A 30.24 1024 10 16 N/A
4:15 pm 16:15 Cloudy 32 -0.2 24 -4.7 72 72 N N/A 30.24 1024 10 16 N/A
4:35 pm 16:35 Cloudy 31 -0.4 25 -3.9 78 78 SE 3 6 30.24 1024 10 16 N/A
4:55 pm 16:55 Cloudy 31 -0.7 26 -3.6 81 81 SE 5 7 30.24 1024 10 16 N/A
5:15 pm 17:15 Cloudy 30 -1 26 -3.6 83 83 SE 6 9 30.24 1024 10 16 N/A
5:35 pm 17:35 Cloudy 30 -1.1 26 -3.5 84 84 SE 6 9 30.24 1024 10 16 N/A
5:55 pm 17:55 Cloudy 30 -1.3 26 -3.5 85 85 ESE 5 7 30.24 1024 10 16 N/A
6:15 pm 18:15 Cloudy 29 -1.4 26 -3.3 87 87 ESE 3 6 30.24 1024 10 16 N/A
6:35 pm 18:35 Cloudy 29 -1.5 26 -3.2 88 88 ESE 5 7 30.24 1024 10 16 N/A
6:55 pm 18:55 Cloudy 29 -1.6 27 -3 90 90 ESE 5 7 30.27 1025 10 16 N/A
7:15 pm 19:15 Cloudy 29 -1.7 27 -3 91 91 E 5 7 30.27 1025 10 16 N/A
7:35 pm 19:35 Cloudy 29 -1.7 27 -3 91 91 E 3 6 30.27 1025 10 16 N/A
7:55 pm 19:55 Cloudy 29 -1.7 27 -3 91 91 N N/A 30.24 1024 10 16 N/A
8:15 pm 20:15 Cloudy 29 -1.7 27 -2.8 92 92 N N/A 30.27 1025 10 16 N/A
8:35 pm 20:35 Cloudy 29 -1.7 27 -2.8 92 92 N N/A 30.24 1024 10 16 N/A
8:55 pm 20:55 Cloudy 29 -1.7 27 -2.7 93 93 N N/A 30.24 1024 10 16 N/A
9:15 pm 21:15 Cloudy 29 -1.6 27 -2.7 92 92 N N/A 30.24 1024 10 16 N/A
9:35 pm 21:35 Cloudy 29 -1.5 27 -2.6 92 92 E 6 9 30.21 1023 10 16 N/A
9:55 pm 21:55 Cloudy 29 -1.6 27 -2.7 92 92 E 3 6 30.24 1024 10 16 N/A
10:15 pm 22:15 Cloudy 29 -1.8 27 -2.8 93 93 ENE 5 7 30.21 1023 7 11 N/A
10:35 pm 22:35 Cloudy with Mist and Fog 29 -1.8 27 -2.7 94 94 NE 3 6 30.21 1023 5 8 N/A
10:55 pm 22:55 Cloudy with Mist and Fog 29 -1.8 27 -2.7 94 94 E 5 7 30.24 1024 5 8 N/A
11:15 pm 23:15 Cloudy 29 -1.8 27 -2.7 94 94 N N/A 30.24 1024 10 16 N/A
11:35 pm 23:35 Cloudy 29 -1.7 27 -2.6 94 94 N N/A 30.24 1024 10 16 N/A
11:55 pm 23:55 Cloudy 29 -1.7 27 -2.6 94 94 N N/A 30.21 1023 10 16 N/A

Powered by AerisWeather